Find Local Weather

World > North America > United States > Montana

Belgrade, Montana Regional Weather

Lat: 45.78N, Lon: 111.18W
Wx Zone: MTZ055
Warning FLW WEATHER ALERT - WINTER WEATHER ADVISORY (More Info. Click Here) Warning
Feedback
Expires:201901171000;;482431
ASUS45 KTFX 170910
RWRMT 
MONTANA REGIONAL WEATHER ROUNDUP
NATIONAL WEATHER SERVICE GREAT FALLS MT
200 AM MST THU JAN 17 2019

NOTE: "FAIR" INDICATES FEW OR NO CLOUDS BELOW 12000 FEET WITH NO
SIGNIFICANT WEATHER AND/OR OBSTRUCTIONS TO VISIBILITY.


MTZ008-052>055-171000-
SOUTHWEST MONTANA
  
CITY           SKY/WX    TMP DP  RH WIND       PRES   REMARKS
BOZEMAN        FAIR      18  13  80 CALM      29.91F                  
DILLON         MOCLDY    21  18  88 SE9       29.89F WCI  11          
ENNIS          CLOUDY    36  25  64 S18G24    29.94F WCI  25          
W YELLOWSTONE  MIX PCPN  28  27  93 SW12      29.95F WCI  18          
THREE FORKS      N/A     16  12  84 CALM      29.90F                  
$$


SKY/WX - Weather  TMP - Temperature  DP - Dew Point  RH - Relative Humidity
WIND - Wind Direction/Speed PRES - Barometric Pressure